Location: Hilina Pali Trail
(19.2864°N, 155.2806°W)
Time: 08:39:36
(UTC+00:00)

Daily predictions for brighter satellites

Satellite Brightness Start Highest point End
(mag) Time Altitude Azimuth Time Altitude Azimuth Time Altitude Azimuth
Centaur D-1A AC-32 3.9 12:27:06 71° N 12:27:32 73° NNE 22:10:15 10° SE
SL-16 R/B 4.2 12:34:32 22° ESE 12:36:47 28° ENE 12:41:56 10° NNE
CZ-2D R/B 3.1 12:50:29 10° NNE 12:54:18 46° NNE 12:54:18 46° NNE
Delta 2 Rocket 4.2 13:00:22 70° ENE 13:00:22 70° ENE 13:06:05 10° ESE
USA 234 4.3 12:58:25 10° ESE 13:04:30 43° NE 13:10:35 10° NNW
Cosmos 2173 Rocket 4.3 13:08:26 57° ESE 13:08:45 58° E 13:14:43 10° NNE
Atlas Centaur 2 3.1 13:11:53 58° SSE 13:12:21 59° SSE 13:20:44 10° ENE
ASC 2 Rocket 4.2 13:19:35 44° NNE 13:19:35 44° NNE 13:23:03 10° ENE
ARIANE 5 R/B 4.0 13:16:43 10° N 13:19:09 25° NNW 13:19:09 25° NNW
Cosmos 1459 Rocket 3.9 13:21:27 75° SSE 13:21:59 82° E 13:28:19 10° N
Cosmos 1802 Rocket 4.1 13:21:04 58° SE 13:22:00 67° E 13:28:04 10° NNE
CENTAUR R/B 3.0 13:18:08 10° NNW 13:26:21 86° WSW 13:34:37 10° SSE
UNK 4.3 13:30:22 50° N 13:30:22 50° N 13:33:49 10° N
Cosmos 2100 Rocket 3.8 13:30:34 75° WSW 13:30:47 76° W 13:37:04 10° N
IRS-1C Rocket 4.0 13:26:45 10° NNE 13:32:00 78° ESE 13:32:09 77° ESE
Resurs 1-4 Rocket 3.0 13:27:32 10° N 13:31:14 37° NW 13:31:14 37° NW
Cosmos 2278 Rocket 4.4 13:38:16 11° NW 13:38:16 11° NW 13:38:59 10° NW
ATLAS 5 CENTAUR R/B 3.4 13:36:01 10° N 13:42:04 49° ENE 13:48:20 10° SE
PAYLOAD B 4.3 13:38:15 10° NNE 13:43:50 74° ESE 13:45:24 48° S
GPS 2-15 Rocket1 3.0 13:49:43 85° SSE 13:49:43 85° SSE 13:54:27 10° E
Cosmos 1743 4.4 13:49:36 24° SE 13:50:55 30° E 13:54:18 10° NNE
Okean O Rocket 1.7 13:47:06 10° N 13:51:00 63° NW 13:51:00 63° NW
ADEOS II 4.1 13:48:50 10° NE 13:52:56 23° E 13:57:01 10° SSE
CZ-4B DEB 4.2 13:48:07 10° NNE 13:53:41 79° ESE 13:55:50 39° S
Cosmos 1500 3.3 13:54:27 75° ENE 13:54:27 75° ENE 13:58:11 10° N
Cosmos 1626 Rocket 3.6 13:52:24 10° N 13:56:48 78° E 13:58:01 47° SSE
Cosmos 1975 4.0 14:02:38 30° NW 14:02:38 30° NW 14:05:07 10° NNW
Cosmos 1346 Rocket 4.1 13:57:41 10° NNE 14:01:27 39° E 14:05:09 10° SSE
CZ-4B R/B 3.2 14:01:15 10° N 14:06:51 66° WNW 14:08:56 39° SW
Cosmos 2082 Rocket 2.8 14:01:36 10° N 14:07:13 59° ENE 14:12:47 10° SSE
CZ-4B R/B 3.0 14:04:10 10° N 14:08:36 73° WNW 14:09:33 53° SW
GPS 2-14 Rocket1 4.1 14:09:11 25° SSE 14:09:11 25° SSE 14:12:14 10° ESE
Timation 2 Rocket 3.7 14:04:10 10° NNW 14:10:06 67° WSW 14:16:00 10° S
Cosmos 1606 Rocket 3.6 14:16:11 24° S 14:18:52 78° E 14:23:15 10° N
SL-16 R/B 3.3 14:19:38 29° WSW 14:20:09 30° W 14:25:29 10° NW
ARGOS Delta rocket 4.3 14:15:38 10° NNE 14:21:07 72° E 14:26:09 12° S
CZ-2C R/B 3.7 14:18:12 17° S 14:21:49 69° WSW 14:26:34 10° NNW
GPS 2-18 Rocket1 3.0 14:22:23 50° SW 14:23:11 70° SSE 14:26:56 10° E
GPS 2-17 Rocket1 2.8 14:23:21 39° WSW 14:24:51 75° S 14:29:17 10° E
Palapa B4 Rocket 3.1 14:29:14 28° W 14:31:25 88° N 14:37:15 10° E
SL-8 R/B 4.4 14:31:04 26° W 14:33:09 40° NW 14:37:38 10° NNE
Cosmos 1066 Rocket 4.2 14:30:27 10° N 14:35:52 81° E 14:41:12 10° S
Cosmos 1992 Rocket 3.9 14:34:34 15° SSW 14:38:53 84° WNW 14:44:06 10° NNE
Cosmos 2233 Rocket 3.9 14:34:35 10° S 14:40:51 80° W 14:47:06 10° N
Cosmos 1953 Rocket 4.4 14:37:22 10° N 14:41:35 50° E 14:45:46 10° SSE
Cosmos 1833 Rocket 2.6 14:40:59 10° NNW 14:46:34 74° WSW 14:52:09 10° S
USA 234 3.8 14:41:39 10° S 14:47:21 33° SW 14:53:05 10° WNW
Skynet4D Del rocket 3.9 14:42:40 10° WNW 14:48:01 67° NNE 14:53:43 10° E
Cosmos 2098 Rocket 3.6 14:49:44 21° WSW 14:50:35 23° W 14:53:33 10° NNW
Meteor 1-31 Rocket 3.3 14:47:56 10° NNE 14:51:51 62° E 14:55:44 10° S
Cosmos 1174 3.5 14:51:09 10° NW 14:54:00 38° WSW 14:56:45 10° S
Meteor 2-17 Rocket 4.4 14:49:33 10° SSW 14:55:38 68° W 15:01:45 10° N
Cosmos 1486 Rocket 4.1 14:52:08 10° NNW 14:57:21 59° WSW 15:02:34 10° S
Delta 2 Rocket 4.3 14:52:10 10° W 14:58:17 40° SSW 15:03:52 10° SE
CCE 1 Rocket 3.9 14:55:11 16° WSW 14:58:31 77° NNW 15:04:54 10° ENE
Meteor 1-21 4.5 14:54:02 10° N 14:59:37 73° E 15:05:11 10° SSE
Atlas Centaur 2 3.4 14:54:31 12° W 15:02:30 62° NNW 15:10:37 10° ENE
Cosmos 2369 Rocket 2.7 15:01:19 11° SW 15:06:30 42° WNW 15:11:52 10° N
Cosmos 1816 Rocket 4.5 15:02:18 10° NNW 15:08:23 67° W 15:14:32 10° S
Cosmos 2263 4.3 15:02:57 10° SSW 15:08:29 62° WNW 15:14:00 10° N
Centaur D-1AR AC-48 3.0 15:06:30 11° WSW 15:09:45 21° SSW 15:12:53 10° SSE
Cosmos 1758 Rocket 3.6 15:05:28 10° N 15:09:55 82° W 15:14:25 10° S
Cosmos 1825 Rocket 4.0 15:06:20 10° NNW 15:10:26 40° W 15:14:34 10° SSW
Delta 168 4.2 15:05:55 11° WSW 15:11:17 80° NNW 15:19:56 10° ENE
Thor Agena Rocket 4.4 15:06:54 10° SSW 15:11:20 29° W 15:15:46 10° NW
Cosmos 2058 Rocket 3.9 15:10:58 10° SW 15:14:48 30° W 15:18:38 10° NNW
ADEOS Rocket 3.2 15:14:11 10° N 15:19:42 53° WNW 15:25:43 10° SSW
USA 116 4.0 15:15:32 10° S 15:19:43 50° WSW 15:23:26 10° NNW
Okean-O 4.3 15:17:34 10° NNW 15:20:28 17° WNW 15:23:21 10° WSW
ASC 2 Rocket 3.2 15:16:52 10° WNW 15:21:09 68° NNE 15:25:11 10° E
CSL-04 Rocket 4.2 15:16:57 10° NNE 15:22:26 66° ESE 15:27:56 10° S
ISS -0.8 15:22:25 10° S 15:24:41 18° SE 15:26:57 10° E
Cosmos 1666 3.8 15:21:50 10° SW 15:25:06 26° W 15:28:24 10° NNW
ATLAS 5 CENTAUR R/B 3.7 15:22:08 10° WNW 15:26:30 19° WSW 15:30:57 10° SSW
Centaur D-1A AC-31 3.5 15:03:52 10° WSW 15:50:33 88° SSE 15:56:02 10° ENE
